EW5993 Weather Reports


time (UTC)temp
F
wind
direction
speed
knots
gust
knots
rain 1hr
in
rain 24hr
in
rain mn
in
humidity
%
barometer
mb
20260507060613 52 184 0.0 0.0 0.00 0.28 0.04 92 990.8
20260507060005 52 184 0.0 0.0 0.00 0.28 0.04 92 990.8
20260507055623 52 184 0.0 0.0 0.00 0.28 0.04 92 990.6
20260507054658 52 184 0.0 0.0 0.01 0.28 0.04 92 990.8
20260507054624 52 184 0.0 0.0 0.00 0.28 0.04 92 990.7
20260507053003 52 181 0.0 4.3 0.02 0.28 0.04 91 990.7
20260507052518 53 181 0.0 3.5 0.00 0.28 0.04 91 990.6
20260507051524 53 163 0.0 2.6 0.00 0.28 0.04 91 990.6
20260507051502 52 188 0.0 2.6 0.03 0.28 0.04 91 990.7
20260507050522 53 188 0.0 0.0 0.00 0.28 0.04 91 990.6
20260507045533 53 188 0.0 0.9 0.05 0.28 0.04 91 990.6
20260507044606 53 188 0.9 3.5 0.03 0.28 0.03 91 990.8
20260507043103 53 188 0.0 5.2 0.02 0.27 0.02 89 990.4
20260507042232 54 186 0.0 2.6 0.00 0.25 0.01 89 990.5
20260507041611 54 204 0.9 3.5 0.01 0.26 0.01 88 990.2
20260507041236 55 167 0.9 6.1 0.00 0.24 0.01 87 990.2
20260507040239 55 205 0.9 6.1 0.00 0.24 0.00 86 990.3
20260507040003 55 197 0.9 5.2 0.00 0.25 0.25 86 990.1
20260507035216 55 198 0.0 4.3 0.00 0.24 0.25 85 990.1
20260507034506 55 139 0.9 4.3 0.00 0.25 0.25 86 990.2
20260507034221 56 319 0.0 3.5 0.00 0.24 0.25 87 990.2
20260507033221 56 148 0.0 0.0 0.00 0.24 0.25 87 990.1
20260507033003 56 223 0.0 1.7 0.00 0.25 0.25 87 989.9
20260507031603 56 176 1.7 7.8 0.00 0.25 0.25 87 990.2
20260507031100 57 192 0.0 3.5 0.00 0.24 0.25 87 990.2
20260507030051 57 191 0.0 4.3 0.00 0.24 0.25 87 990.0
20260507030003 56 149 0.9 5.2 0.00 0.25 0.25 87 990.0
20260507025048 57 333 0.0 0.0 0.00 0.24 0.25 87 989.8
20260507024503 57 164 0.9 7.0 0.00 0.25 0.25 87 990.0
20260507024053 58 306 0.9 7.8 0.00 0.24 0.25 87 990.0
20260507023115 58 251 0.9 7.8 0.00 0.24 0.25 87 989.8
20260507023103 58 251 0.0 7.8 0.00 0.25 0.25 87 989.9
20260507022116 59 238 0.0 0.0 0.00 0.24 0.25 87 989.8
20260507021502 58 193 1.7 7.0 0.00 0.25 0.25 87 989.7
20260507021045 59 153 0.0 0.9 0.00 0.24 0.25 87 989.7
20260507020113 59 159 0.0 7.0 0.00 0.25 0.25 86 989.8
20260507020034 59 159 0.9 0.0 0.00 0.24 0.25 86 989.8
20260507015014 60 159 1.7 7.0 0.00 0.24 0.25 86 989.8
20260507014624 59 209 0.9 7.0 0.00 0.25 0.25 86 989.8
20260507014020 60 158 1.7 7.8 0.00 0.24 0.25 86 989.9
20260507013007 60 150 1.7 10.4 0.00 0.24 0.25 86 989.8
20260507013002 59 150 3.5 7.0 0.00 0.25 0.25 86 989.8
20260507011608 59 175 4.3 11.3 0.00 0.25 0.25 86 989.8
20260507010828 60 196 1.7 7.0 0.00 0.24 0.25 87 989.6
20260507010003 59 153 2.6 7.8 0.00 0.25 0.25 88 989.7
20260507005825 60 143 2.6 7.0 0.00 0.24 0.25 88 989.6
20260507004846 60 174 2.6 7.0 0.00 0.24 0.25 89 989.3
20260507004503 60 147 3.5 6.1 0.00 0.25 0.25 89 989.3
20260507003822 60 182 2.6 7.0 0.00 0.24 0.25 89 989.3
20260507003103 60 169 3.5 7.0 0.00 0.25 0.25 89 989.2
20260507002832 61 121 1.7 6.1 0.00 0.24 0.25 90 989.1
20260507001809 61 204 3.5 9.6 0.00 0.24 0.25 90 989.0
20260507001503 61 167 4.3 10.4 0.03 0.25 0.25 90 989.0
20260507000830 61 126 3.5 9.6 0.00 0.24 0.25 91 988.7
20260507000128 61 158 3.5 7.0 0.03 0.25 0.25 91 988.6
20260506234724 62 194 2.6 10.4 0.00 0.24 0.25 91 988.0
20260506234627 62 178 2.6 12.2 0.03 0.25 0.25 91 988.0
20260506233712 63 146 4.3 10.4 0.06 0.24 0.25 90 987.9
20260506233102 63 163 4.3 10.4 0.03 0.25 0.25 90 987.9
20260506232651 64 156 2.6 9.6 0.00 0.21 0.21 92 988.0
20260506231653 64 134 1.7 5.2 0.00 0.21 0.21 92 987.8
20260506231503 64 94 2.6 6.1 0.00 0.22 0.22 92 987.6
20260506230632 65 111 1.7 7.0 0.00 0.21 0.21 92 987.6
20260506230105 64 80 2.6 6.1 0.01 0.22 0.22 92 987.6
20260506225623 65 72 1.7 7.0 0.00 0.21 0.21 92 987.5
20260506224600 65 98 2.6 8.7 0.00 0.21 0.21 92 987.5
20260506223546 65 90 1.7 8.7 0.00 0.21 0.21 91 987.4
20260506223002 65 59 2.6 9.6 0.01 0.22 0.22 91 987.4
20260506222530 66 57 1.7 7.0 0.00 0.21 0.21 90 987.3
20260506221607 66 63 3.5 7.8 0.01 0.22 0.22 89 987.4
20260506221457 66 53 1.7 7.0 0.00 0.21 0.21 89 987.3
20260506220516 66 52 1.7 7.0 0.00 0.21 0.21 88 987.2
20260506220003 66 63 2.6 7.8 0.00 0.21 0.21 88 987.1
20260506215507 67 69 1.7 7.0 0.00 0.21 0.21 88 987.1
20260506214503 66 91 2.6 5.2 0.00 0.21 0.21 88 987.0
20260506213520 67 76 2.6 7.8 0.00 0.21 0.21 88 986.9
20260506213102 66 73 4.3 8.7 0.00 0.21 0.21 88 986.9
20260506211312 67 69 2.6 9.6 0.00 0.21 0.21 88 986.7
20260506210336 67 109 3.5 9.6 0.00 0.21 0.21 87 986.8
20260506205340 67 67 3.5 7.8 0.00 0.21 0.21 88 986.7
20260506204504 67 66 4.3 8.7 0.00 0.21 0.21 87 986.7
20260506203203 67 49 4.3 12.2 0.00 0.21 0.21 87 986.6
20260506203003 67 64 5.2 13.0 0.00 0.21 0.21 87 986.6
20260506201602 66 78 5.2 10.4 0.00 0.21 0.21 89 986.6
20260506201011 66 78 2.6 7.8 0.00 0.21 0.21 90 986.6
20260506200004 65 53 1.7 8.7 0.00 0.21 0.21 90 986.8
20260506195957 65 46 2.6 9.6 0.00 0.21 0.21 90 986.7
20260506194950 65 80 3.5 9.6 0.00 0.21 0.21 89 986.7
20260506194503 65 69 5.2 13.0 0.00 0.21 0.21 90 986.9
20260506193926 65 74 3.5 9.6 0.00 0.21 0.21 90 986.8
20260506193103 64 98 4.3 9.6 0.00 0.21 0.21 90 986.9
20260506192928 65 76 3.5 9.6 0.00 0.21 0.21 90 986.8
20260506191916 64 79 3.5 8.7 0.00 0.21 0.21 92 986.8
20260506191606 64 117 3.5 8.7 0.00 0.21 0.21 92 986.9
20260506190925 64 67 2.6 7.0 0.00 0.21 0.21 92 986.9
20260506185946 63 86 2.6 7.8 0.00 0.21 0.21 92 986.9
20260506184950 63 66 0.9 7.8 0.00 0.21 0.21 93 987.0
20260506184605 62 94 1.7 5.2 0.00 0.21 0.21 93 987.1
20260506183928 63 36 0.9 6.1 0.00 0.21 0.21 93 987.1
20260506182916 62 35 1.7 9.6 0.00 0.21 0.21 93 987.3
20260506181919 62 63 1.7 9.6 0.00 0.21 0.21 93 987.3
20260506175815 62 14 2.6 9.6 0.00 0.21 0.21 93 987.5
20260506174602 62 45 3.5 9.6 0.00 0.21 0.21 94 987.5
20260506173632 62 44 2.6 8.7 0.00 0.21 0.21 93 987.5
20260506173127 62 71 3.5 9.6 0.00 0.21 0.21 93 987.4
20260506171520 62 82 2.6 9.6 0.00 0.21 0.21 94 987.4
20260506170521 62 103 2.6 9.6 0.00 0.21 0.21 93 987.5
20260506170004 61 82 2.6 7.8 0.00 0.21 0.21 93 987.4
20260506165528 62 79 2.6 7.8 0.00 0.21 0.21 93 987.4
20260506164504 61 67 2.6 8.7 0.00 0.21 0.21 94 987.5
20260506163414 62 24 2.6 8.7 0.00 0.21 0.21 94 987.3
20260506163103 61 59 1.7 9.6 0.00 0.21 0.21 94 987.5
20260506162431 62 5 2.6 9.6 0.00 0.21 0.21 94 987.5
20260506161502 61 19 4.3 10.4 0.02 0.21 0.21 94 987.6
20260506161455 62 22 2.6 9.6 0.00 0.21 0.21 94 987.6
20260506155332 62 14 4.3 9.6 0.00 0.21 0.21 94 987.5
20260506154658 61 55 4.3 10.4 0.11 0.21 0.21 94 987.5
20260506154334 62 18 4.3 9.6 0.04 0.21 0.21 94 987.5
20260506153327 61 355 5.2 11.3 0.06 0.21 0.21 94 987.5
20260506153002 61 36 4.3 12.2 0.14 0.21 0.21 94 987.3
20260506152341 61 11 5.2 11.3 0.08 0.19 0.20 94 987.3
20260506151603 61 23 5.2 9.6 0.13 0.19 0.19 93 987.7
20260506151333 61 29 3.5 9.6 0.12 0.19 0.19 93 987.8
20260506150005 61 14 5.2 10.4 0.10 0.16 0.16 93 988.1
20260506145204 62 36 0.9 7.0 0.51 0.12 0.13 92 988.3
20260506144502 61 5 1.7 7.8 0.07 0.10 0.10 92 988.6
20260506143059 61 42 1.7 8.7 0.05 0.07 0.07 92 988.5
20260506142953 62 50 4.3 11.3 0.00 0.06 0.06 92 988.4
20260506141929 62 36 4.3 10.4 0.00 0.06 0.06 92 988.1
20260506141603 62 34 4.3 10.4 0.05 0.06 0.06 92 988.0
20260506140912 62 33 3.5 9.6 0.04 0.06 0.06 92 988.0
20260506135847 62 5 1.7 7.0 0.13 0.06 0.06 91 987.9
20260506134850 62 5 2.6 6.1 0.06 0.04 0.04 91 987.8
20260506134602 62 9 3.5 7.0 0.04 0.04 0.04 91 987.9
20260506133826 62 9 1.7 5.2 0.05 0.02 0.03 90 988.0
20260506133002 62 18 1.7 5.2 0.02 0.02 0.02 90 988.2
20260506131654 62 25 2.6 6.1 0.00 0.01 0.01 89 988.1
20260506131505 62 59 2.6 7.0 0.01 0.01 0.01 90 988.1
20260506130627 63 19 1.7 5.2 0.00 0.01 0.01 89 988.1
20260506130003 62 27 0.9 4.3 0.01 0.01 0.01 89 988.3
20260506125603 63 13 1.7 3.5 0.00 0.01 0.01 89 988.2
20260506124503 62 24 2.6 4.3 0.00 0.00 0.00 87 988.3
20260506123435 63 9 0.9 3.5 0.00 0.00 0.00 86 988.4
20260506123003 63 81 0.9 4.3 0.00 0.00 0.00 85 988.4
20260506122443 63 28 0.0 2.6 0.00 0.00 0.00 84 988.5
20260506121602 63 28 0.0 3.5 0.00 0.00 0.00 84 988.6
20260506121433 64 22 0.0 2.6 0.00 0.00 0.00 84 988.6
20260506120402 64 67 0.9 6.1 0.00 0.00 0.00 82 988.5
20260506115334 64 30 1.7 7.8 0.00 0.00 0.00 81 988.2
20260506114356 65 16 2.6 7.8 0.00 0.00 0.00 79 988.0
20260506113337 65 5 1.7 5.2 0.00 0.00 0.00 77 988.0
20260506113003 65 42 1.7 5.2 0.00 0.00 0.00 76 988.1
20260506111503 66 26 1.7 7.0 0.00 0.00 0.00 73 987.9
20260506111127 67 43 2.6 8.7 0.00 0.00 0.00 72 987.8
20260506110149 67 88 3.5 8.7 0.00 0.00 0.00 72 987.7
20260506110105 66 40 4.3 9.6 0.00 0.00 0.00 72 987.6
20260506105126 67 22 1.7 8.7 0.00 0.00 0.00 71 987.5
20260506104636 66 55 1.7 9.6 0.00 0.00 0.00 71 987.6
20260506104105 67 17 3.5 8.7 0.00 0.00 0.00 71 987.4
20260506103048 67 22 2.6 7.8 0.00 0.00 0.00 70 987.4
20260506103005 66 27 3.5 8.7 0.00 0.00 0.00 70 987.5
20260506102056 67 12 3.5 9.6 0.00 0.00 0.00 69 987.3
20260506101603 67 17 4.3 8.7 0.00 0.00 0.00 69 987.2
20260506101032 67 5 2.6 9.6 0.00 0.00 0.00 69 987.2
20260506100051 67 18 2.6 7.8 0.00 0.00 0.00 69 987.1
20260506094603 67 5 3.5 7.8 0.00 0.00 0.00 67 987.2
20260506094009 68 19 1.7 7.0 0.00 0.00 0.00 67 987.1
20260506093003 68 76 0.0 7.8 0.00 0.00 0.00 66 987.3
20260506092947 68 77 1.7 7.0 0.00 0.00 0.00 67 987.2
20260506091503 68 29 1.7 4.3 0.00 0.00 0.00 66 987.3
20260506090833 68 48 1.7 7.8 0.00 0.00 0.00 66 987.3
20260506090103 68 63 3.5 9.6 0.00 0.00 0.00 65 987.4
20260506085820 68 86 2.6 9.6 0.00 0.00 0.00 65 987.3
20260506084503 68 351 3.5 10.4 0.00 0.00 0.00 65 987.3
20260506083635 68 26 2.6 7.0 0.00 0.00 0.00 64 987.3
20260506083102 68 39 4.3 7.8 0.00 0.00 0.00 64 987.4
20260506082604 69 130 1.7 10.4 0.00 0.00 0.00 64 987.4
20260506081504 68 40 2.6 11.3 0.00 0.00 0.00 63 987.4
20260506080408 69 28 2.6 7.8 0.00 0.00 0.00 63 987.3
20260506080116 68 24 4.3 8.7 0.00 0.00 0.00 63 987.3
20260506073344 69 32 0.9 5.2 0.00 0.00 0.00 63 987.5
20260506073005 68 11 1.7 5.2 0.00 0.00 0.00 62 987.6
20260506072327 69 28 0.9 5.2 0.00 0.00 0.00 62 987.5
20260506071503 68 15 1.7 5.2 0.00 0.00 0.00 62 987.7
20260506071332 69 62 0.9 4.3 0.00 0.00 0.00 62 987.7
20260506070356 69 35 1.7 4.3 0.00 0.00 0.00 61 987.7
20260506070107 68 79 2.6 5.2 0.00 0.00 0.00 61 987.8
20260506062440 69 49 0.0 5.2 0.00 0.00 0.00 60 988.2
20260506061502 68 28 0.9 5.2 0.00 0.00 0.00 59 988.3
20260506061430 69 71 0.0 5.2 0.00 0.00 0.00 59 988.3